Hourly Weather Kozyno

Today, 21 October, Wednesday

Time Temperature Precipitation Wind Pressure Humidity
00:00 +7°C° 0 mm 5 mps 752 mmHg 80%
01:00 +7°C° 0 mm 5 mps 752 mmHg 82%
02:00 +7°C° 0 mm 4 mps 751 mmHg 83%
03:00 +7°C° 0 mm 4 mps 751 mmHg 83%
04:00 +6°C° 0 mm 4 mps 750 mmHg 83%
05:00 +6°C° 0 mm 4 mps 750 mmHg 83%
06:00 +7°C° 0 mm 5 mps 749 mmHg 80%
07:00 +7°C° 0 mm 5 mps 749 mmHg 77%
08:00 +7°C° 0 mm 5 mps 749 mmHg 73%
09:00 +8°C° 0.1 mm 5 mps 749 mmHg 74%
10:00 +8°C° 0.1 mm 4 mps 749 mmHg 75%
11:00 +8°C° 0.1 mm 4 mps 749 mmHg 75%
12:00 +10°C° 0 mm 4 mps 749 mmHg 74%
13:00 +10°C° 0 mm 4 mps 749 mmHg 74%
14:00 +11°C° 0 mm 4 mps 749 mmHg 73%
15:00 +11°C° 0 mm 4 mps 749 mmHg 73%
16:00 +11°C° 0 mm 3 mps 749 mmHg 74%
17:00 +11°C° 0 mm 3 mps 749 mmHg 74%
18:00 +10°C° 0 mm 3 mps 749 mmHg 74%
19:00 +10°C° 0 mm 3 mps 749 mmHg 73%
20:00 +10°C° 0 mm 3 mps 749 mmHg 72%
21:00 +10°C° 0 mm 3 mps 749 mmHg 72%
22:00 +10°C° 0 mm 3 mps 749 mmHg 72%
23:00 +10°C° 0 mm 3 mps 749 mmHg 72%

Tomorrow, 22 October, Thursday

Time Temperature Precipitation Wind Pressure Humidity
00:00 +10°C° 0 mm 4 mps 749 mmHg 73%
01:00 +10°C° 0 mm 4 mps 749 mmHg 75%
02:00 +10°C° 0 mm 4 mps 749 mmHg 76%
03:00 +10°C° 0 mm 4 mps 748 mmHg 78%
04:00 +8°C° 0 mm 4 mps 748 mmHg 80%
05:00 +8°C° 0 mm 4 mps 748 mmHg 82%
06:00 +8°C° 0 mm 4 mps 748 mmHg 82%
07:00 +8°C° 0 mm 5 mps 748 mmHg 83%
08:00 +9°C° 0 mm 5 mps 748 mmHg 83%
09:00 +10°C° 0 mm 5 mps 748 mmHg 77%
10:00 +13°C° 0 mm 6 mps 748 mmHg 71%
11:00 +14°C° 0 mm 6 mps 748 mmHg 66%
12:00 +15°C° 0 mm 6 mps 749 mmHg 64%
13:00 +16°C° 0 mm 6 mps 749 mmHg 63%
14:00 +17°C° 0 mm 6 mps 749 mmHg 61%
15:00 +16°C° 0 mm 5 mps 749 mmHg 65%
16:00 +15°C° 0 mm 5 mps 749 mmHg 69%
17:00 +15°C° 0 mm 4 mps 748 mmHg 74%
18:00 +14°C° 0 mm 4 mps 749 mmHg 77%
19:00 +13°C° 0 mm 4 mps 749 mmHg 80%
20:00 +13°C° 0 mm 3 mps 749 mmHg 83%
21:00 +13°C° 0 mm 3 mps 749 mmHg 83%
22:00 +12°C° 0 mm 3 mps 749 mmHg 84%
23:00 +12°C° 0 mm 3 mps 749 mmHg 85%

Day after tomorrow, 23 October, Friday

Time Temperature Precipitation Wind Pressure Humidity
00:00 +12°C° 0 mm 3 mps 749 mmHg 86%
01:00 +12°C° 0 mm 3 mps 749 mmHg 88%
02:00 +12°C° 0 mm 3 mps 749 mmHg 89%
03:00 +12°C° 0 mm 3 mps 748 mmHg 88%
04:00 +12°C° 0 mm 3 mps 748 mmHg 87%
05:00 +12°C° 0 mm 4 mps 748 mmHg 87%
06:00 +12°C° 0 mm 4 mps 747 mmHg 85%
07:00 +12°C° 0 mm 4 mps 747 mmHg 83%
08:00 +12°C° 0 mm 4 mps 747 mmHg 81%
09:00 +13°C° 0 mm 4 mps 747 mmHg 78%
10:00 +14°C° 0 mm 4 mps 747 mmHg 75%
11:00 +15°C° 0 mm 5 mps 746 mmHg 72%
12:00 +15°C° 0 mm 5 mps 746 mmHg 72%
13:00 +15°C° 0 mm 4 mps 746 mmHg 73%
14:00 +15°C° 0 mm 4 mps 746 mmHg 74%
15:00 +15°C° 0 mm 4 mps 745 mmHg 76%
16:00 +14°C° 0 mm 3 mps 745 mmHg 78%
17:00 +14°C° 0 mm 3 mps 745 mmHg 80%
18:00 +14°C° 0 mm 3 mps 745 mmHg 81%
19:00 +14°C° 0 mm 3 mps 745 mmHg 83%
20:00 +13°C° 0 mm 3 mps 746 mmHg 84%
21:00 +13°C° 0 mm 3 mps 746 mmHg 88%
22:00 +12°C° 0 mm 3 mps 746 mmHg 91%
23:00 +13°C° 0 mm 2 mps 746 mmHg 94%

24 October, Saturday

Time Temperature Precipitation Wind Pressure Humidity
00:00 +12°C° 0.1 mm 2 mps 745 mmHg 95%
01:00 +12°C° 0.1 mm 2 mps 745 mmHg 96%
02:00 +12°C° 0.1 mm 2 mps 745 mmHg 96%
03:00 +12°C° 0.1 mm 2 mps 745 mmHg 96%
04:00 +11°C° 0.1 mm 3 mps 745 mmHg 96%
05:00 +11°C° 0.1 mm 3 mps 745 mmHg 96%
06:00 +11°C° 0.2 mm 3 mps 745 mmHg 95%
07:00 +12°C° 0.2 mm 3 mps 745 mmHg 95%
08:00 +12°C° 0.2 mm 4 mps 745 mmHg 95%
09:00 +12°C° 0 mm 4 mps 745 mmHg 91%
10:00 +13°C° 0 mm 5 mps 745 mmHg 87%
11:00 +13°C° 0 mm 6 mps 745 mmHg 84%
12:00 +13°C° 0.1 mm 6 mps 745 mmHg 77%
13:00 +13°C° 0.1 mm 6 mps 745 mmHg 71%
14:00 +12°C° 0.1 mm 7 mps 745 mmHg 64%
15:00 +11°C° 0.1 mm 6 mps 746 mmHg 68%
16:00 +11°C° 0.1 mm 6 mps 746 mmHg 73%
17:00 +10°C° 0.1 mm 5 mps 746 mmHg 77%
18:00 +9°C° 0.3 mm 5 mps 747 mmHg 78%
19:00 +10°C° 0.3 mm 4 mps 747 mmHg 79%
20:00 +8°C° 0.3 mm 4 mps 748 mmHg 81%
21:00 +7°C° 0 mm 4 mps 748 mmHg 81%
22:00 +7°C° 0 mm 4 mps 749 mmHg 81%
23:00 +6°C° 0 mm 4 mps 749 mmHg 82%

25 October, Sunday

Time Temperature Precipitation Wind Pressure Humidity
00:00 +6°C° 0 mm 4 mps 750 mmHg 84%
01:00 +6°C° 0 mm 4 mps 750 mmHg 85%
02:00 +5°C° 0 mm 4 mps 750 mmHg 87%
03:00 +5°C° 0 mm 3 mps 750 mmHg 89%
04:00 +4°C° 0 mm 3 mps 751 mmHg 91%
05:00 +5°C° 0 mm 2 mps 751 mmHg 92%
06:00 +5°C° 0 mm 2 mps 751 mmHg 92%
07:00 +5°C° 0 mm 2 mps 751 mmHg 92%
08:00 +5°C° 0 mm 2 mps 751 mmHg 92%
09:00 +7°C° 0 mm 2 mps 752 mmHg 84%
10:00 +8°C° 0 mm 2 mps 752 mmHg 77%
11:00 +10°C° 0 mm 2 mps 752 mmHg 69%
12:00 +11°C° 0 mm 3 mps 752 mmHg 66%
13:00 +11°C° 0 mm 3 mps 751 mmHg 62%
14:00 +12°C° 0 mm 3 mps 751 mmHg 59%
15:00 +11°C° 0 mm 3 mps 751 mmHg 63%
16:00 +10°C° 0 mm 3 mps 751 mmHg 67%
17:00 +10°C° 0 mm 2 mps 750 mmHg 71%
18:00 +9°C° 0 mm 3 mps 751 mmHg 73%
19:00 +9°C° 0 mm 3 mps 751 mmHg 75%
20:00 +8°C° 0 mm 3 mps 751 mmHg 77%
21:00 +7°C° 0 mm 4 mps 751 mmHg 78%
22:00 +7°C° 0 mm 4 mps 751 mmHg 78%
23:00 +7°C° 0 mm 4 mps 751 mmHg 79%

26 October, Monday

Time Temperature Precipitation Wind Pressure Humidity
00:00 +7°C° 0 mm 4 mps 750 mmHg 81%
01:00 +7°C° 0 mm 4 mps 750 mmHg 83%
02:00 +7°C° 0 mm 4 mps 750 mmHg 85%
03:00 +6°C° 0 mm 4 mps 750 mmHg 86%
04:00 +6°C° 0 mm 4 mps 750 mmHg 87%
05:00 +6°C° 0 mm 4 mps 749 mmHg 88%
06:00 +6°C° 0 mm 4 mps 749 mmHg 88%
07:00 +6°C° 0 mm 4 mps 749 mmHg 89%
08:00 +6°C° 0 mm 4 mps 749 mmHg 89%
09:00 +7°C° 0 mm 5 mps 749 mmHg 84%
10:00 +9°C° 0 mm 5 mps 749 mmHg 79%
11:00 +10°C° 0 mm 5 mps 749 mmHg 74%
12:00 +12°C° 0 mm 5 mps 749 mmHg 71%
13:00 +13°C° 0 mm 5 mps 748 mmHg 68%
14:00 +14°C° 0 mm 6 mps 748 mmHg 64%
15:00 +13°C° 0 mm 5 mps 748 mmHg 68%
16:00 +13°C° 0 mm 5 mps 748 mmHg 72%
17:00 +12°C° 0 mm 4 mps 747 mmHg 75%
18:00 +12°C° 0 mm 4 mps 747 mmHg 76%
19:00 +10°C° 0 mm 5 mps 747 mmHg 78%
20:00 +10°C° 0 mm 5 mps 747 mmHg 79%
21:00 +9°C° 0 mm 5 mps 747 mmHg 79%
22:00 +9°C° 0 mm 5 mps 747 mmHg 79%
23:00 +9°C° 0 mm 5 mps 747 mmHg 79%

27 October, Tuesday

Time Temperature Precipitation Wind Pressure Humidity
00:00 +9°C° 0 mm 5 mps 747 mmHg 77%
01:00 +9°C° 0 mm 5 mps 747 mmHg 76%
02:00 +9°C° 0 mm 5 mps 747 mmHg 74%
03:00 +9°C° 0 mm 5 mps 747 mmHg 74%
04:00 +10°C° 0 mm 4 mps 747 mmHg 74%
05:00 +10°C° 0 mm 4 mps 748 mmHg 73%
06:00 +10°C° 0 mm 4 mps 748 mmHg 73%
07:00 +10°C° 0 mm 4 mps 748 mmHg 72%
08:00 +8°C° 0 mm 4 mps 748 mmHg 72%
09:00 +10°C° 0 mm 4 mps 748 mmHg 69%
10:00 +11°C° 0 mm 4 mps 748 mmHg 67%
11:00 +11°C° 0 mm 4 mps 749 mmHg 64%
12:00 +12°C° 0 mm 4 mps 749 mmHg 64%
13:00 +12°C° 0 mm 4 mps 749 mmHg 63%
14:00 +12°C° 0 mm 3 mps 749 mmHg 63%
15:00 +12°C° 0 mm 3 mps 749 mmHg 65%
16:00 +12°C° 0 mm 3 mps 749 mmHg 66%
17:00 +12°C° 0 mm 3 mps 749 mmHg 67%
18:00 +11°C° 0 mm 3 mps 750 mmHg 69%
19:00 +11°C° 0 mm 3 mps 750 mmHg 70%
20:00 +12°C° 0 mm 2 mps 750 mmHg 72%
21:00 +12°C° 0 mm 2 mps 751 mmHg 73%
22:00 +12°C° 0 mm 2 mps 751 mmHg 74%
23:00 +12°C° 0 mm 2 mps 751 mmHg 75%
Show more